Regional Weather Roundup
Issued by NWS

Home | Current Version | Previous Version | Graphics & Text | Print | Product List | Glossary On
Versions: 1 2 3 4 5 6 7 8 9 10 11 12 13 14 15 16 17 18 19 20 21 22 23 24 25 26 27 28 29 30 31 32 33 34 35 36 37 38 39 40 41 42 43 44 45 46 47 48 49 50
000
ASUS45 KSLC 161510
RWRUT

UTAH REGIONAL WEATHER ROUNDUP
NATIONAL WEATHER SERVICE SALT LAKE CITY UT
800 AM MST MON JAN 16 2017

UTZ001>011-023>025-161600-

NORTHERN UTAH

CITY           SKY/WX    TMP DP  RH WIND       PRES   REMARKS
BRIGHAM CITY     N/A     11   8  86 CALM      30.30R
HILL AFB       CLOUDY    13   6  73 E14       30.25R WCI  -2
LOGAN          MOCLDY    -1  -4  87 CALM      30.33R FOG
OGDEN          MOCLDY    13  11  92 CALM      30.26R
SALT LAKE CITY FLURRIES  24  18  77 N12       30.28R WCI  13
TOOELE VALLEY  CLOUDY    27  23  86 NW7       30.28R WCI  19
WENDOVER       CLOUDY    21  18  86 CALM      30.28R
HEBER CITY     LGT SNOW   9   7  92 CALM      30.22R VSB 1
WEST JORDAN    CLOUDY    22  22 100 NW12      30.27R WCI  10

$$

UTZ011>015-024>027-161600-

CENTRAL/NORTHEAST UTAH

CITY           SKY/WX    TMP DP  RH WIND       PRES   REMARKS
PROVO AIRPORT  LGT SNOW  25  21  85 N9        30.25R FOG     WCI  15
MOAB/CANYONLAN CLOUDY    34  33  96 W5        30.03R WCI  30
DELTA          CLEAR     21  19  93 NW8       30.23R WCI  12
PRICE          CLEAR     19  10  68 CALM      30.03R
RICHFIELD      CLOUDY    28  21  74 NE3       30.19S
ROOSEVELT      CLOUDY    25  19  80 SW5       30.18R WCI  19
VERNAL         CLOUDY    18  15  88 CALM      30.16R

$$

UTZ013>016-019>022-027-161600-

SOUTHERN UTAH

CITY           SKY/WX    TMP DP  RH WIND       PRES   REMARKS
BRYCE CANYON   CLOUDY    17  12  80 N14       30.06R WCI   3
CEDAR CITY     CLOUDY    25  19  78 N12       30.12R WCI  14
MILFORD        CLOUDY    27  22  81 N16       30.18R WCI  15
ST GEORGE      MOSUNNY   32  25  74 CALM      30.13R
HANKSVILLE     CLEAR     32  28  86 MISG      30.07R
KANAB          CLEAR     27  25  93 MISG      30.10R
BLANDING         N/A     31  31 100 CALM      30.03R

$$

REGIONAL REPORTS     COLORADO/ARIZONA

CITY           SKY/WX    TMP DP  RH WIND       PRES   REMARKS
CRAIG, CO      CLOUDY    12   8  84 W3        30.13R
GRAND JUNCTION MOCLDY    31  23  72 N5        30.04R WCI  26
RIFLE, CO      CLOUDY    29  16  58 N6        30.07R WCI  23
MONTROSE, CO   CLOUDY    31  29  92 CALM      30.04R
CORTEZ, CO     CLOUDY    33  30  88 W6        29.93R WCI  28
COLORADO CITY    N/A     27  25  93 CALM      30.09R
PAGE, AZ       CLEAR     35  23  61 CALM      30.02R
GRAND CANYON   CLEAR     25  24  96 NE5       30.01R WCI  19
KINGMAN, AZ    PTCLDY    34  25  69 E10       30.06R WCI  26
FLAGSTAFF, AZ  PTCLDY    28  26  92 CALM      30.00R

$$

REGIONAL REPORTS    NEVADA/IDAHO/WYOMING

CITY           SKY/WX    TMP DP  RH WIND       PRES   REMARKS
LAS VEGAS, NV  PTCLDY    42  25  50 E14       30.10R
ELY, NY        CLOUDY    18  16  92 N14       30.19S WCI   4
ELKO, NV       CLOUDY    20  16  84 W8        30.29R WCI  10
POCATELLO, ID  CLOUDY     3   0  87 N6        30.34S FOG     WCI  -8
BURLEY, ID     LGT SNOW  12   9  87 E3        30.33R FOG
FORT BRIDGER,    N/A     -3  -4  96 CALM      30.17R
EVANSTON, WY   CLOUDY    -1  -8  72 CALM      30.14R HAZE
ROCK SPRINGS,  FOG       -8 -11  86 SW5       30.16R VSB<1/4 WCI -19
KEMMERER, WY     N/A    N/A N/A N/A CALM      30.13S

$$



USA.gov is the U.S. government's official web portal to all federal, state and local government web resources and services.